Terminal Aerodrome Forecast
Issued by NWS

Home | Current Version | Previous Version | Text Only | Print | Product List | Glossary On
Versions: 1 2 3 4 5 6 7 8 9 10 11
000
FTUS42 KILM 200500
TAFCRE
TAF
KCRE 200530Z 2006/2106 04004KT P6SM BKN120
     FM201100 05005KT 6SM -RA BKN040 OVC100
      TEMPO 2013/2016 4SM RA SCT015
     FM201600 03007KT 6SM -RA BKN015 OVC040
     FM202200 02005KT P6SM SCT015 BKN025=

USA.gov is the U.S. government's official web portal to all federal, state and local government web resources and services.